User: anonymous   Login
Location: Baix
(44.7118°N, 4.7648°E)
Time: 19:22:07
(UTC+00:00)
Language:

Tiros 1 despin weight - Orbit

View from above orbital plane
View from above orbital plane
View from above satellite
View from above satellite

Ground track
Ground track

The orbit data is extracted from the following two-line orbital elements,

1 00115U 60002D   21169.54437872  .00000033  00000-0  31048-4 0  9990
2 00115  48.1672 313.6052 0033920  62.6781 297.7578 14.83780285246175
Epoch (UTC): 18 June 2021 13:03:54
Eccentricity: 0.0033920
inclination: 48.1672°
perigee height: 593 km
apogee height: 641 km
right ascension of ascending node: 313.6052°
argument of perigee: 62.6781°
revolutions per day: 14.83780285
mean anomaly at epoch: 297.7578°
orbit number at epoch: 24617

The dashed part of the orbit path shows where the satellite is in the earth's shadow,  

DLR